Weather Roundup
Issued by NWS Springfield, MO

Home | Current Version | Previous Version | Text Only | Print | Product List | Glossary On
Versions: 1 2 3 4 5 6 7 8 9 10 11 12 13 14 15 16 17 18 19 20 21 22 23 24 25 26 27 28 29 30 31 32 33 34 35 36 37 38 39 40 41 42 43 44 45 46 47 48 49 50
000
NZUS99 KSGF 270507
HRRSGF

HOURLY WEATHER
NATIONAL WEATHER SERVICE SPRINGFIELD MO
1200 AM CDT THU APR 27 2017

......SGF CWA......

CITY           SKY/WX    TMP DP  RH WIND       PRES   REMARKS
SPRINGFIELD    CLOUDY    45  43  93 W9        29.67S
JOPLIN         CLEAR     45  43  93 W7        29.72R
WEST PLAINS    LGT RAIN  46  44  93 W12G21    29.63R
ROLLA          LGT RAIN  45  44  97 W14G23    29.56R FOG
OSAGE BEACH    LGT RAIN  45  43  93 VRB7      29.62S
BRANSON        CLOUDY    45  43  93 CALM      29.68F

......SURROUNDING SGF CWA......

CITY           SKY/WX    TMP DP  RH WIND       PRES   REMARKS
CHANUTE        CLEAR     43  38  82 W5        29.72R
PARSONS        PTCLDY    46  43  89 CALM      29.73R
COFFEYVILLE    CLOUDY    51  42  71 NW8       29.73R
EMPORIA        CLEAR     43  37  79 W3        29.71R
GROVE OK       CLOUDY    46  45  93 CALM      29.74R
ROGERS AR      CLOUDY    44  43  96 W6        29.73R
SILOAM SPRINGS CLOUDY    45  39  81 W6        29.73R
HARRISON AR    CLOUDY    44  44 100 W9        29.68S
NEAR YELLVILLE CLOUDY   N/A N/A N/A W10       29.64S

......KANSAS AND MISSOURI......

CITY           SKY/WX    TMP DP  RH WIND       PRES   REMARKS
KANSAS CTY INT CLOUDY    43  35  73 NW7       29.66S
DOWNTOWN KC    CLOUDY    45  36  70 VRB7      29.66F
COLUMBIA       LGT RAIN  45  44  97 NW16G25   29.57R
SEDALIA        CLOUDY    45  44  97 NW12      29.64R
ST JOSEPH      CLOUDY    44  35  70 NW14      29.67F
ST LOUIS       RAIN      51  48  89 W21G28    29.47R FOG
SPIRIT OF STL  RAIN      50  48  93 W13G21    29.49S
KIRKSVILLE     LGT RAIN  43  43 100 NW12G22   29.57S
WICHITA        CLEAR     39  37  92 W3        29.73S
TOPEKA         CLOUDY    46  37  71 NW8       29.70S
OLATHE         CLOUDY    43  36  76 NW14      29.66F

......TENNESSEE......

CITY           SKY/WX    TMP DP  RH WIND       PRES   REMARKS
MEMPHIS        CLOUDY    62  61  96 S12       29.59R
NASHVILLE      MOCLDY    74  58  57 S20G32    29.62R

......ARKANSAS.......

CITY           SKY/WX    TMP DP  RH WIND       PRES   REMARKS
FAYETTEVILLE   CLOUDY    45  44  97 CALM      29.74R
FT SMITH       CLOUDY    50  44  80 W5        29.75R
LITTLE ROCK    CLOUDY    52  49  89 W13G21    29.68R

......OKLAHOMA.......

CITY           SKY/WX    TMP DP  RH WIND       PRES   REMARKS
TULSA          PTCLDY    46  42  86 W7        29.73S
PONCA CITY     CLEAR     41  38  89 CALM      29.74S
MCALESTER      PTCLDY    45  43  93 CALM      29.77R
OKLAHOMA CITY  PTCLDY    43  40  89 S3        29.75F

......IOWA............

CITY           SKY/WX    TMP DP  RH WIND       PRES   REMARKS
DES MOINES     CLOUDY    41  35  79 NW9       29.62R
QUAD CITIES    LGT RAIN  46  43  89 NW13      29.47F FOG

......ILLINOIS........

CITY           SKY/WX    TMP DP  RH WIND       PRES   REMARKS
QUINCY         RAIN      46  45  96 NW17      29.51R FOG
CHICAGO        RAIN      60  58  92 CALM      29.42F FOG




USA.gov is the U.S. government's official web portal to all federal, state and local government web resources and services.